QFA465 YSSY-YMML

Flight info

Callsign QFA465
Flight time 1h 20m
Altitude 38000
Route WOL H65 LEECE Q29 ML
Aircraft B738/M-SDE2E3FGHIRWXY/LB1

Departure

Time 2026-05-04 08:50
Airport Sydney Kingsford Smith International Airport (YSSY)

Arrival

Time 2026-05-04 10:10
Airport Melbourne Airport (YMML)
Time Latitude Longitude Altitude Speed Heading
2026-05-04 08:02 -33.93099 151.17674 28 ft 0 kts 188°
2026-05-04 08:29 -33.93087 151.17676 28 ft 2 kts 187°
2026-05-04 08:31 -33.93050 151.17743 28 ft 0 kts 297°
2026-05-04 08:35 -33.93015 151.17645 28 ft 16 kts 283°
2026-05-04 08:35 -33.93048 151.17539 28 ft 14 kts 206°
2026-05-04 08:35 -33.93142 151.17529 28 ft 13 kts 167°
2026-05-04 08:35 -33.93227 151.17552 28 ft 11 kts 167°
2026-05-04 08:37 -33.93807 151.17705 28 ft 16 kts 165°
2026-05-04 08:37 -33.93899 151.17776 28 ft 15 kts 161°
2026-05-04 08:37 -33.94001 151.17807 28 ft 15 kts 168°
2026-05-04 08:38 -33.94138 151.17841 28 ft 24 kts 168°
2026-05-04 08:38 -33.94317 151.17888 28 ft 25 kts 167°
2026-05-04 08:38 -33.94453 151.17905 28 ft 16 kts 202°
2026-05-04 08:40 -33.95080 151.18216 28 ft 14 kts 77°
2026-05-04 08:40 -33.95059 151.18335 28 ft 14 kts 78°
2026-05-04 08:40 -33.95040 151.18448 28 ft 12 kts 90°
2026-05-04 08:41 -33.95095 151.18526 28 ft 15 kts 142°
2026-05-04 08:41 -33.95190 151.18626 28 ft 18 kts 137°
2026-05-04 08:41 -33.95293 151.18709 28 ft 19 kts 159°
2026-05-04 08:41 -33.95433 151.18751 28 ft 20 kts 168°
2026-05-04 08:42 -33.95567 151.18785 28 ft 19 kts 167°
2026-05-04 08:42 -33.95693 151.18819 28 ft 18 kts 167°
2026-05-04 08:42 -33.95813 151.18852 28 ft 17 kts 167°
2026-05-04 08:42 -33.95926 151.18881 28 ft 16 kts 168°
2026-05-04 08:43 -33.96034 151.18909 28 ft 15 kts 168°
2026-05-04 08:43 -33.96135 151.18935 27 ft 14 kts 167°
2026-05-04 08:43 -33.96229 151.18959 28 ft 14 kts 169°
2026-05-04 08:43 -33.96350 151.18988 28 ft 20 kts 168°
2026-05-04 08:44 -33.96508 151.19032 28 ft 26 kts 166°
2026-05-04 08:44 -33.96686 151.19073 28 ft 22 kts 173°
2026-05-04 08:46 -33.97115 151.19255 27 ft 0 kts 78°
2026-05-04 08:47 -33.97115 151.19258 27 ft 2 kts 78°
2026-05-04 08:47 -33.97102 151.19327 28 ft 10 kts 78°
2026-05-04 08:47 -33.97063 151.19376 28 ft 8 kts 355°
2026-05-04 08:48 -33.97041 151.19371 27 ft 1 kts 347°
2026-05-04 08:48 -33.97038 151.19369 27 ft 0 kts 347°
2026-05-04 08:48 -33.97031 151.19368 27 ft 11 kts 347°
2026-05-04 08:48 -33.96691 151.19279 28 ft 86 kts 348°
2026-05-04 08:49 -33.95880 151.19067 28 ft 147 kts 348°
2026-05-04 08:50 -33.91722 151.22942 3258 ft 219 kts 107°
2026-05-04 08:50 -33.92422 151.24643 3691 ft 237 kts 116°
2026-05-04 08:51 -33.93255 151.26366 4311 ft 243 kts 115°
2026-05-04 08:51 -33.93879 151.28245 4870 ft 243 kts 94°
2026-05-04 08:51 -33.93946 151.30264 5110 ft 246 kts 82°
2026-05-04 08:51 -33.93801 151.32445 5252 ft 272 kts 79°
2026-05-04 08:52 -33.93613 151.34749 5798 ft 283 kts 81°
2026-05-04 08:52 -33.93464 151.37128 6429 ft 291 kts 82°
2026-05-04 08:52 -33.93366 151.39565 7199 ft 294 kts 84°
2026-05-04 08:52 -33.93307 151.42032 7975 ft 297 kts 85°
2026-05-04 08:53 -33.93256 151.44519 8689 ft 301 kts 85°
2026-05-04 08:54 -34.01711 151.57353 12795 ft 367 kts 190°
2026-05-04 08:55 -34.04115 151.56516 13523 ft 361 kts 213°
2026-05-04 08:55 -34.06025 151.54700 14310 ft 353 kts 233°
2026-05-04 08:55 -34.07521 151.52391 15013 ft 351 kts 246°
2026-05-04 08:55 -34.08326 151.49648 15783 ft 345 kts 264°
2026-05-04 08:57 -34.16138 151.30725 20524 ft 395 kts 235°
2026-05-04 09:01 -34.43297 150.94688 28389 ft 431 kts 236°
2026-05-04 09:01 -34.45317 150.91991 28868 ft 433 kts 236°
2026-05-04 09:01 -34.47361 150.89259 29277 ft 437 kts 236°
2026-05-04 09:01 -34.49389 150.86548 29722 ft 439 kts 236°
2026-05-04 09:02 -34.51443 150.83801 30135 ft 441 kts 236°
2026-05-04 09:02 -34.53508 150.81038 30558 ft 443 kts 236°
2026-05-04 09:02 -34.55579 150.78261 31045 ft 442 kts 237°
2026-05-04 09:02 -34.57572 150.75494 31647 ft 436 kts 238°
2026-05-04 09:03 -34.59480 150.72690 32347 ft 428 kts 240°
2026-05-04 09:03 -34.61308 150.69873 32990 ft 421 kts 241°
2026-05-04 09:03 -34.63063 150.67078 33575 ft 415 kts 242°
2026-05-04 09:03 -34.64779 150.64281 34109 ft 411 kts 242°
2026-05-04 09:04 -34.66476 150.61479 34575 ft 409 kts 243°
2026-05-04 09:04 -34.68136 150.58717 34964 ft 408 kts 243°
2026-05-04 09:04 -34.69826 150.55894 35320 ft 408 kts 243°
2026-05-04 09:04 -34.71486 150.53116 35662 ft 408 kts 243°
2026-05-04 09:05 -34.73148 150.50340 36063 ft 406 kts 243°
2026-05-04 09:05 -34.74812 150.47559 36406 ft 405 kts 243°
2026-05-04 09:05 -34.76471 150.44785 36712 ft 405 kts 243°
2026-05-04 09:05 -34.78134 150.42003 37021 ft 405 kts 243°
2026-05-04 09:06 -34.79789 150.39233 37325 ft 404 kts 243°
2026-05-04 09:07 -34.91370 150.19801 38052 ft 405 kts 243°
2026-05-04 09:08 -34.93037 150.16991 38048 ft 408 kts 243°
2026-05-04 09:08 -34.96354 150.11394 38073 ft 407 kts 243°
2026-05-04 09:09 -34.99633 150.05872 38059 ft 405 kts 243°
2026-05-04 09:09 -35.02929 150.00287 38051 ft 409 kts 243°
2026-05-04 09:10 -35.06248 149.94673 38057 ft 407 kts 243°
2026-05-04 09:10 -35.09537 149.89099 38043 ft 406 kts 243°
2026-05-04 09:11 -35.12850 149.83472 38039 ft 407 kts 243°
2026-05-04 09:11 -35.16144 149.77867 38049 ft 407 kts 243°
2026-05-04 09:12 -35.19447 149.72237 38046 ft 408 kts 243°
2026-05-04 09:14 -35.32664 149.49623 38048 ft 410 kts 243°
2026-05-04 09:14 -35.35987 149.43910 38051 ft 412 kts 243°
2026-05-04 09:15 -35.39280 149.38251 38045 ft 409 kts 243°
2026-05-04 09:15 -35.42586 149.32555 38045 ft 411 kts 244°
2026-05-04 09:17 -35.57420 149.06874 38047 ft 411 kts 244°
2026-05-04 09:18 -35.60731 149.01111 38056 ft 414 kts 244°
2026-05-04 09:18 -35.64033 148.95363 38049 ft 412 kts 244°
2026-05-04 09:19 -35.67336 148.89603 38044 ft 411 kts 243°
2026-05-04 09:19 -35.70637 148.83833 38041 ft 413 kts 244°
2026-05-04 09:20 -35.73914 148.78093 38040 ft 413 kts 243°
2026-05-04 09:20 -35.77215 148.72304 38039 ft 412 kts 243°
2026-05-04 09:21 -35.80495 148.66548 38049 ft 413 kts 243°
2026-05-04 09:21 -35.83765 148.60803 38042 ft 409 kts 243°
2026-05-04 09:22 -35.87049 148.55013 38043 ft 414 kts 243°
2026-05-04 09:22 -35.90316 148.49237 38045 ft 411 kts 243°
2026-05-04 09:23 -35.93580 148.43445 38047 ft 411 kts 243°
2026-05-04 09:23 -35.96818 148.37685 38055 ft 410 kts 243°
2026-05-04 09:25 -36.09756 148.14577 38062 ft 410 kts 244°
2026-05-04 09:26 -36.12986 148.08791 38051 ft 409 kts 244°
2026-05-04 09:26 -36.16206 148.03035 38055 ft 411 kts 244°
2026-05-04 09:27 -36.19453 147.97220 38047 ft 410 kts 243°
2026-05-04 09:27 -36.22697 147.91403 38038 ft 412 kts 244°
2026-05-04 09:28 -36.25948 147.85561 38040 ft 413 kts 244°
2026-05-04 09:28 -36.29210 147.79692 38042 ft 411 kts 244°
2026-05-04 09:29 -36.32441 147.73862 38037 ft 414 kts 243°
2026-05-04 09:29 -36.35693 147.67978 38043 ft 413 kts 243°
2026-05-04 09:30 -36.38929 147.62108 38036 ft 415 kts 243°
2026-05-04 09:30 -36.42193 147.56180 38030 ft 413 kts 243°
2026-05-04 09:31 -36.45426 147.50295 38025 ft 415 kts 243°
2026-05-04 09:31 -36.48683 147.44356 38023 ft 414 kts 243°
2026-05-04 09:32 -36.51918 147.38449 38025 ft 416 kts 243°
2026-05-04 09:34 -36.64888 147.14645 38019 ft 419 kts 243°
2026-05-04 09:34 -36.68150 147.08640 38020 ft 418 kts 243°
2026-05-04 09:35 -36.71398 147.02650 38015 ft 417 kts 243°
2026-05-04 09:35 -36.74635 146.96668 38026 ft 419 kts 244°
2026-05-04 09:37 -36.85885 146.75804 36577 ft 406 kts 244°
2026-05-04 09:37 -36.87452 146.72882 35976 ft 406 kts 244°
2026-05-04 09:38 -36.89012 146.69966 35329 ft 408 kts 244°
2026-05-04 09:38 -36.90588 146.67020 34762 ft 409 kts 245°
2026-05-04 09:38 -36.92174 146.64052 34293 ft 409 kts 245°
2026-05-04 09:38 -36.93744 146.61113 33778 ft 410 kts 245°
2026-05-04 09:39 -36.94804 146.59128 33392 ft 410 kts 245°
2026-05-04 09:39 -36.96388 146.56163 32818 ft 410 kts 245°
2026-05-04 09:39 -36.97950 146.53239 32256 ft 409 kts 246°
2026-05-04 09:39 -36.99522 146.50293 31713 ft 407 kts 246°
2026-05-04 09:40 -37.01088 146.47357 31175 ft 405 kts 246°
2026-05-04 09:40 -37.02640 146.44446 30635 ft 404 kts 246°
2026-05-04 09:40 -37.04189 146.41538 30103 ft 402 kts 246°
2026-05-04 09:40 -37.05376 146.39307 29688 ft 401 kts 246°
2026-05-04 09:41 -37.06912 146.36414 29151 ft 399 kts 246°
2026-05-04 09:42 -37.24085 146.25919 26594 ft 421 kts 193°
2026-05-04 09:43 -37.26997 146.25617 26366 ft 422 kts 193°
2026-05-04 09:43 -37.29955 146.25305 26132 ft 422 kts 192°
2026-05-04 09:43 -37.32862 146.24995 25904 ft 418 kts 192°
2026-05-04 09:43 -37.35745 146.24683 25682 ft 415 kts 192°
2026-05-04 09:44 -37.38583 146.24370 25455 ft 413 kts 192°
2026-05-04 09:44 -37.41459 146.24042 25234 ft 411 kts 192°
2026-05-04 09:44 -37.44278 146.23721 25023 ft 406 kts 192°
2026-05-04 09:46 -37.64006 146.21280 24650 ft 410 kts 192°
2026-05-04 09:46 -37.66811 146.20914 24318 ft 405 kts 192°
2026-05-04 09:46 -37.69592 146.20543 23984 ft 399 kts 192°
2026-05-04 09:47 -37.72333 146.20166 23646 ft 393 kts 192°
2026-05-04 09:47 -37.75016 146.19783 23321 ft 388 kts 192°
2026-05-04 09:49 -37.89633 146.10861 20678 ft 323 kts 272°
2026-05-04 09:49 -37.89322 146.08109 20264 ft 314 kts 293°
2026-05-04 09:49 -37.88202 146.05803 19854 ft 311 kts 314°
2026-05-04 09:51 -37.76009 146.00543 18315 ft 308 kts 340°
2026-05-04 09:51 -37.74048 145.99464 17965 ft 306 kts 328°
2026-05-04 09:51 -37.72269 145.98033 17620 ft 302 kts 323°
2026-05-04 09:51 -37.70576 145.96527 17327 ft 300 kts 322°
2026-05-04 09:52 -37.68874 145.94986 17135 ft 298 kts 322°
2026-05-04 09:52 -37.67248 145.93388 16925 ft 299 kts 315°
2026-05-04 09:52 -37.65878 145.91440 16672 ft 295 kts 308°
2026-05-04 09:52 -37.64610 145.89388 16420 ft 295 kts 308°
2026-05-04 09:53 -37.63305 145.87408 16165 ft 294 kts 310°
2026-05-04 09:53 -37.61955 145.85548 15911 ft 287 kts 312°
2026-05-04 09:53 -37.60567 145.83740 15657 ft 282 kts 313°
2026-05-04 09:53 -37.59200 145.81993 15407 ft 280 kts 313°
2026-05-04 09:54 -37.57836 145.80247 15157 ft 280 kts 313°
2026-05-04 09:54 -37.56480 145.78508 14905 ft 279 kts 313°
2026-05-04 09:54 -37.55121 145.76759 14717 ft 276 kts 313°
2026-05-04 09:54 -37.53772 145.75021 14597 ft 277 kts 313°
2026-05-04 09:55 -37.52427 145.73288 14473 ft 279 kts 312°
2026-05-04 09:55 -37.51079 145.71555 14348 ft 278 kts 313°
2026-05-04 09:55 -37.49730 145.69820 14218 ft 276 kts 313°
2026-05-04 09:55 -37.48410 145.68085 14095 ft 276 kts 309°
2026-05-04 09:56 -37.47359 145.66055 13958 ft 275 kts 292°
2026-05-04 09:56 -37.46970 145.63722 13837 ft 277 kts 273°
2026-05-04 09:56 -37.47165 145.61317 13719 ft 281 kts 261°
2026-05-04 09:56 -37.47784 145.58977 13590 ft 286 kts 247°
2026-05-04 09:57 -37.48858 145.56853 13472 ft 290 kts 238°
2026-05-04 09:57 -37.50096 145.54835 13346 ft 291 kts 237°
2026-05-04 09:57 -37.51346 145.52830 13215 ft 290 kts 237°
2026-05-04 09:57 -37.52570 145.50813 12868 ft 292 kts 238°
2026-05-04 09:58 -37.53778 145.48772 12442 ft 290 kts 238°
2026-05-04 09:58 -37.54966 145.46732 12047 ft 287 kts 239°
2026-05-04 09:58 -37.56139 145.44702 11634 ft 285 kts 239°
2026-05-04 10:00 -37.64075 145.30890 9298 ft 275 kts 240°
2026-05-04 10:00 -37.65184 145.28969 8947 ft 272 kts 239°
2026-05-04 10:02 -37.72760 145.15782 6489 ft 261 kts 240°
2026-05-04 10:04 -37.79765 145.03633 3980 ft 232 kts 241°
2026-05-04 10:04 -37.80690 145.01990 3650 ft 230 kts 242°
2026-05-04 10:04 -37.81426 145.00250 3355 ft 220 kts 257°
2026-05-04 10:04 -37.81792 144.98418 3156 ft 210 kts 264°
2026-05-04 10:05 -37.82075 144.96649 3065 ft 200 kts 264°
2026-05-04 10:05 -37.82362 144.94987 3006 ft 189 kts 264°
2026-05-04 10:05 -37.82606 144.93410 2950 ft 176 kts 267°
2026-05-04 10:05 -37.82785 144.91908 2844 ft 171 kts 267°
2026-05-04 10:06 -37.82819 144.90424 2749 ft 167 kts 289°
2026-05-04 10:06 -37.82214 144.89200 2684 ft 167 kts 312°
2026-05-04 10:06 -37.81379 144.88191 2591 ft 161 kts 319°
2026-05-04 10:08 -37.75997 144.85525 1883 ft 132 kts 346°
2026-05-04 10:08 -37.75083 144.85345 1697 ft 132 kts 347°
2026-05-04 10:08 -37.74178 144.85165 1528 ft 133 kts 348°
2026-05-04 10:08 -37.73252 144.84998 1344 ft 133 kts 348°
2026-05-04 10:09 -37.72337 144.84827 1174 ft 134 kts 349°
2026-05-04 10:09 -37.71405 144.84644 986 ft 134 kts 349°
2026-05-04 10:09 -37.70488 144.84462 847 ft 135 kts 350°
2026-05-04 10:09 -37.69547 144.84282 679 ft 138 kts 351°
2026-05-04 10:10 -37.68591 144.84102 494 ft 139 kts 352°
2026-05-04 10:10 -37.67697 144.83936 441 ft 109 kts 352°
2026-05-04 10:10 -37.67156 144.83835 441 ft 54 kts 352°
2026-05-04 10:10 -37.66789 144.83766 441 ft 43 kts 351°
2026-05-04 10:11 -37.66558 144.83757 441 ft 27 kts 33°
2026-05-04 10:11 -37.66511 144.83891 441 ft 5 kts 93°
2026-05-04 10:11 -37.66511 144.83900 441 ft 0 kts 93°
2026-05-04 10:12 -37.66512 144.83920 441 ft 7 kts 93°
2026-05-04 10:12 -37.66519 144.84038 441 ft 18 kts 94°
2026-05-04 10:12 -37.66528 144.84193 441 ft 17 kts 93°
2026-05-04 10:12 -37.66523 144.84343 441 ft 16 kts 82°
2026-05-04 10:13 -37.66506 144.84485 441 ft 16 kts 81°
2026-05-04 10:13 -37.66488 144.84619 441 ft 15 kts 80°
2026-05-04 10:13 -37.66481 144.84749 441 ft 14 kts 107°
2026-05-04 10:13 -37.66561 144.84801 441 ft 13 kts 177°
2026-05-04 10:14 -37.66651 144.84799 441 ft 11 kts 168°
2026-05-04 10:14 -37.66687 144.84848 441 ft 8 kts 74°
2026-05-04 10:16 -37.66679 144.84900 441 ft 0 kts 81°